NIMBUS 2 DEB, 49249

Orbit data source: Space-Track

NIMBUS 2 DEB, 49249 is space debris in SSO originally from a launch on Sun, 15 May 1966 UTC launched from the Air Force Western Test Range (AFWTR). Debris objects in space refer to the collection of defunct objects orbiting the Earth. Examples of debris include non-operational satellites, rocket bodies, and fragments generated from explosions, collisions, or faulty payload assembly.

Loading next visibility...
Identifier
49249, 1966-040BX
Orbit
SSO
Country
Flag of USUS
Related business
Manufacturer
Unknown
Mission
Spacecraft
Bus & Motor
Unknown
Mass
Unknown
Launch date (UTC)
1966-05-15 (60 years ago)
Launch vehicle
Unknown
Launch site
Air Force Western Test Range (AFWTR)
Object type
Payload
Rocket body
Debris
Shape & HBR
Unknown shape, 0.1 m
Radar Cross Section
Small (<0.1 m²)

Expand to show TLE details & history
Last TLE update: 23 hours ago

TLE from 23 hours ago
0 NIMBUS 2 DEB
1 49249U 66040BX  26125.04718426  .00001793  00000-0  32822-2 0  9991
2 49249 100.4549 337.9631 0052463   6.6376 353.5435 13.41423590233450
Epoch: 2026-05-05T01:07Z
TLE epoch observation values (Epoch: 2026-05-05T01:07:56.720Z)
Latitude
0.00001°
Longitude
98.04912°
Altitude
1,067.719 km
Speed
7.337 km/s
True Right ascension
22h 31m 51s
True Declination
0° 00' 00"
Sunlit
Object was in daylight at epoch
Visualization orbit readout
Latitude
Unknown
Longitude
Unknown
Altitude
Unknown
Speed
Unknown
Apparent Right ascension
Unknown
Apparent Declination
Unknown
Sunlit
N/A
Visualization observer readout
Local Sidereal Time
07:33:46
Azimuth
Unknown
Elevation
Unknown
Doppler factor
Unknown
Orbital elements
Apogee altitude
1,140.573 km
Perigee altitude
1,062.094 km
Semi-major axis
7,479.471 km
Eccentricity
0.00525
Inclination
100.4549°
RAAN
337.9631°
Arg. of periapsis
6.6376°
True anomaly
353.47545°
Mean anomaly
353.5435°
Eccentric anomaly
353.50952°
Mean motion
3.35534 °/min
Orbital period
107.29 mins
BSTAR
0.0032822
Loading maneuver chart data...
Computing Atmospheric mass density...
Loading historical data...
Loading historical data...
Loading historical data...
Loading historical data...
Loading historical data...
Loading historical data...
Loading historical data...

Documentation

Showing up to 5 results
|